Torna al catalogo

USA 40 R/B DEB

LostHEO
NORAD 23391·DEBRIS·🇺🇸 United States

Lanciato Aug 8, 1989 da Cape Canaveral Space Force Station

Loading…

Prossimi Passaggi (prossime 24 ore)

TLE

ObsoletoSource: Space-Track

Epoca: Feb 27, 2023, 01:35 UTC

1 23391U 89061BP  23058.06659727  .00030521  00000-0  26727-1 0  9998
2 23391  56.9578 193.9938 3137679 215.6295 118.8236  8.60197864126151

Traccia USA 40 R/B DEB in tempo reale con AllMySat

Download on the App Store